User: anonymous   Login
Location: Bazugues
(43.4465°N, 0.3432°E)
Time: 01:47:15
(UTC+00:00)
Language:

Cosmos 1241 Rocket - Orbit

View from above orbital plane
View from above orbital plane
View from above satellite
View from above satellite

Ground track
Ground track

The orbit is defined by the following mean orbital elements,

1 12150U          26070.43138477 +.00000000 +00000-0 +13232-3 0 00008
2 12150  65.8192  79.7293 0042099  76.7843 283.7912 13.77469181    07
Epoch (UTC): 11 March 2026 10:21:11
Eccentricity: 0.0042099
inclination: 65.8192°
perigee height: 942 km
apogee height: 1004 km
right ascension of ascending node: 79.7293°
argument of perigee: 76.7843°
revolutions per day: 13.77469181
mean anomaly at epoch: 283.7912°

The dashed part of the orbit path shows where the satellite is in the earth's shadow,  

DLR